Ascot Park, Australia

8:18 PM ACDT on November 25, 2017 (GMT +1030)
Ascot Park

Weather History for 94672 - January, 2014

Change the Weather History Date:

Saturday, January 11, 2014

  Actual Average Record
Temperature  
Mean Temperature 74 °F -  
Max Temperature 86 °F 82 °F - ()
Min Temperature 62 °F 60 °F - ()
Cooling Degree Days 9    
Growing Degree Days 24 (Base 50)    
Moisture  
Dew Point 49 °F    
Average Humidity 43    
Maximum Humidity 73    
Minimum Humidity 10    
Precipitation  
Precipitation 0.00 in 0.03 in - ()
Sea Level Pressure  
Sea Level Pressure 30.07 in    
Wind  
Wind Speed 11 mph ()    
Max Wind Speed 22 mph    
Max Gust Speed 31 mph    
Visibility 9.2 miles    
Events      
T = Trace of Precipitation, MM = Missing Value Source: Averaged Metar Reports

Daily Weather History Graph

Daily Weather History Graph

Search for Another Location

Airport or City:

Trip Planner

Search our weather history database for the weather conditions in past years. The results will help you decide how hot, cold, wet, or windy it might be!

Date:

Astronomy

Jan. 11, 2014 Rise Set
Actual Time 6:13 AM ACDT 8:33 PM ACDT
Civil Twilight 5:44 AM ACDT 9:02 PM ACDT
Nautical Twilight 5:09 AM ACDT 9:37 PM ACDT
Astronomical Twilight 4:30 AM ACDT 10:16 PM ACDT
Moon 4:24 PM ACDT (1/11) 2:17 AM ACDT (1/11)
Length of Visible Light 15h 17m
Length of Day
14h 19m
Waxing Gibbous, 78% of the Moon is Illuminated
Jan 11
Waxing Gibbous
Jan 16
Full
Jan 24
Last Quarter
Jan 31
New
Feb 7
First Quarter

Hourly Weather History & Observations

Time (ACDT) Temp. Dew Point Humidity Pressure Visibility Wind Dir Wind Speed Gust Speed Precip Events Conditions
12:00 AM 71 °F 43 °F 25% 30.04 in 22 mi South 11.5 mph - -   Partly Cloudy
12:00 AM 71.6 °F 42.8 °F 35% 30.04 in - South 11.5 mph - N/A   Clear
12:30 AM 69.8 °F 44.6 °F 40% 30.04 in - SSE 12.7 mph - N/A   Clear
1:00 AM 69.8 °F 44.6 °F 40% 30.04 in - South 6.9 mph - N/A   Clear
1:30 AM 69 °F 43 °F 28% 30.04 in - ESE 5.8 mph - -  
1:30 AM 68.0 °F 42.8 °F 40% 30.04 in - ESE 5.8 mph - N/A   Clear
2:00 AM 69.8 °F 42.8 °F 38% 30.04 in - SSE 10.4 mph - N/A   Clear
2:30 AM 68.0 °F 42.8 °F 40% 30.01 in - SSE 13.8 mph - N/A   Clear
3:00 AM 67 °F 45 °F 33% 30.02 in 22 mi SSE 11.5 mph - -   Partly Cloudy
3:00 AM 68.0 °F 44.6 °F 43% 30.01 in - SSE 11.5 mph - N/A   Clear
3:30 AM 66.2 °F 46.4 °F 49% 30.01 in - SSE 5.8 mph - N/A   Clear
4:00 AM 64.4 °F 46.4 °F 52% 30.01 in - NE 2.3 mph - N/A   Clear
4:30 AM 66 °F 46 °F 37% 30.04 in - South 9.2 mph - -  
4:30 AM 66.2 °F 46.4 °F 49% 30.04 in - South 9.2 mph - N/A   Clear
5:00 AM 66.2 °F 42.8 °F 43% 30.04 in - South 10.4 mph - N/A   Clear
5:30 AM 64.4 °F 46.4 °F 52% 30.04 in - South 10.4 mph - N/A   Clear
6:00 AM 63 °F 49 °F 49% 30.06 in 22 mi South 6.9 mph - -   Partly Cloudy
6:00 AM 62.6 °F 48.2 °F 59% 30.04 in 6.2 mi South 6.9 mph - N/A   Partly Cloudy
6:30 AM 62.6 °F 48.2 °F 59% 30.06 in 6.2 mi SSE 6.9 mph - N/A   Partly Cloudy
7:00 AM 64.4 °F 48.2 °F 56% 30.06 in 6.2 mi ESE 5.8 mph - N/A   Partly Cloudy
7:30 AM 68 °F 49 °F 39% 30.10 in - ESE 4.6 mph - -  
7:30 AM 68.0 °F 48.2 °F 49% 30.09 in 6.2 mi ESE 4.6 mph - N/A   Partly Cloudy
8:00 AM 69.8 °F 48.2 °F 46% 30.09 in 6.2 mi South 3.5 mph - N/A   Partly Cloudy
8:30 AM 69.8 °F 51.8 °F 53% 30.09 in - South 9.2 mph - N/A   Clear
9:00 AM 72 °F 51 °F 36% 30.12 in 19 mi South 5.8 mph - -   Partly Cloudy
9:00 AM 71.6 °F 50.0 °F 46% 30.09 in - South 5.8 mph - N/A   Clear
9:30 AM 73.4 °F 53.6 °F 50% 30.12 in - SSW 8.1 mph - N/A   Clear
10:00 AM 75.2 °F 53.6 °F 47% 30.09 in - SW 8.1 mph - N/A   Clear
10:30 AM 77 °F 54 °F 34% 30.12 in - SSW 6.9 mph - -  
10:30 AM 77.0 °F 53.6 °F 44% 30.09 in - SSW 6.9 mph - N/A   Clear
11:00 AM 77.0 °F 53.6 °F 44% 30.09 in - WSW 12.7 mph - N/A   Clear
11:30 AM 75.2 °F 59.0 °F 57% 30.09 in - SW 18.4 mph - N/A   Clear
12:00 PM 76 °F 58 °F 44% 30.10 in 19 mi SW 17.3 mph - -   Partly Cloudy
12:00 PM 75.2 °F 59.0 °F 57% 30.09 in - SW 17.3 mph - N/A   Clear
12:30 PM 78.8 °F 59.0 °F 51% 30.09 in - SW 13.8 mph - N/A   Clear
1:00 PM 78.8 °F 57.2 °F 47% 30.09 in - SW 18.4 mph - N/A   Clear
1:30 PM 78 °F 55 °F 35% 30.09 in - SSW 19.6 mph - -  
1:30 PM 78.8 °F 55.4 °F 44% 30.06 in - SSW 19.6 mph - N/A   Clear
2:00 PM 78.8 °F 57.2 °F 47% 30.06 in - SW 18.4 mph - N/A   Clear
2:30 PM 78.8 °F 57.2 °F 47% 30.06 in - SW 17.3 mph - N/A   Clear
3:00 PM 85 °F 42 °F 13% 30.06 in 19 mi South 10.4 mph - -   Partly Cloudy
3:00 PM 86.0 °F 42.8 °F 22% 30.06 in - South 10.4 mph - N/A   Clear
3:30 PM 86.0 °F 46.4 °F 25% 30.06 in - South 18.4 mph - N/A   Clear
4:00 PM 84.2 °F 39.2 °F 20% 30.06 in - SSE 19.6 mph - N/A   Clear
4:30 PM 84 °F 36 °F 10% 30.06 in - SSE 16.1 mph - -  
4:30 PM 84.2 °F 35.6 °F 18% 30.04 in - SSE 16.1 mph - N/A   Clear
5:00 PM 84.2 °F 41.0 °F 22% 30.04 in - South 13.8 mph - N/A   Clear
5:30 PM 82.4 °F 46.4 °F 28% 30.04 in - SSE 21.9 mph - N/A   Clear
6:00 PM 80 °F 46 °F 19% 30.05 in 19 mi SSE 19.6 mph - -   Partly Cloudy
6:00 PM 80.6 °F 46.4 °F 30% 30.04 in - SSE 19.6 mph - N/A   Clear
6:30 PM 77.0 °F 48.2 °F 36% 30.04 in - SSE 20.7 mph - N/A   Clear
7:00 PM 75.2 °F 50.0 °F 41% 30.06 in 6.2 mi SE 20.7 mph - N/A   Partly Cloudy
7:30 PM 73 °F 51 °F 35% 30.09 in - SE 17.3 mph - -  
7:30 PM 73.4 °F 51.8 °F 47% 30.06 in 6.2 mi SE 17.3 mph - N/A   Partly Cloudy
7:35 PM 73.4 °F 51.8 °F 47% 30.06 in 6.2 mi SE 18.4 mph 31.1 mph N/A   Partly Cloudy
8:00 PM 69.8 °F 50.0 °F 49% 30.09 in 6.2 mi SSE 17.3 mph - N/A   Partly Cloudy
8:30 PM 68.0 °F 50.0 °F 52% 30.09 in 6.2 mi SE 12.7 mph - N/A   Partly Cloudy
9:00 PM 67 °F 51 °F 47% 30.11 in 19 mi South 15.0 mph - -   Partly Cloudy
9:00 PM 68.0 °F 51.8 °F 56% 30.09 in 6.2 mi South 15.0 mph - N/A   Partly Cloudy
9:30 PM 66.2 °F 51.8 °F 60% 30.09 in 6.2 mi South 13.8 mph - N/A   Partly Cloudy
10:00 PM 66.2 °F 53.6 °F 64% 30.09 in 6.2 mi South 12.7 mph - N/A   Partly Cloudy
10:30 PM 65 °F 53 °F 57% 30.11 in - South 12.7 mph - -  
10:30 PM 64.4 °F 53.6 °F 68% 30.09 in 6.2 mi South 12.7 mph - N/A   Partly Cloudy
11:00 PM 64.4 °F 53.6 °F 68% 30.09 in 6.2 mi South 12.7 mph - N/A   Partly Cloudy
11:30 PM 64.4 °F 55.4 °F 73% 30.09 in 6.2 mi South 9.2 mph - N/A   Partly Cloudy